Regional Weather Roundup
Issued by NWS New Orleans/Baton Rouge, LA

Home | Current Version | Previous Version | Graphics & Text | Print | Product List | Glossary On
Versions: 1 2 3 4 5 6 7 8 9 10 11 12 13 14 15 16 17 18 19 20 21 22 23 24 25 26 27 28 29 30 31 32 33 34 35 36 37 38 39 40 41 42 43 44 45 46 47 48 49 50
026
ASUS44 KLIX 171105
RWRLIX
NEW ORLEANS REGIONAL WEATHER ROUNDUP
NATIONAL WEATHER SERVICE NEW ORLEANS LA
600 AM CDT THU APR 17 2014

NOTE: "FAIR" INDICATES FEW OR NO CLOUDS BELOW 12,000 FEET WITH NO
      SIGNIFICANT WEATHER AND/OR OBSTRUCTIONS TO VISIBILITY.
      SKY/WX - SKY CONDITION AND SIGNIFICANT WEATHER.
      TMP - AIR TEMPERATURE.     DP    - DEWPOINT TEMPERATURE.
      RH  - RELATIVE HUMIDITY.   PRES  - PRESSURE.
      HI  - HEAT INDEX.          WCI   - WIND CHILL INDEX.

*  THESE STATIONS ARE NOT NWS OR FAA STATIONS AND ARE NOT UNDER
   NWS QUALITY CONTROL.

LAZ038-040-048-061>063-065>067-069-171200-
SOUTHEAST LOUISIANA

CITY           SKY/WX    TMP DP  RH WIND       PRES   REMARKS
N.O. AUDUBON     N/A     58  47  65 MISG        N/A
N.O. INTL ARPT CLOUDY    58  54  86 NE5       30.13R
N.O. LAKEFRONT CLOUDY    59  55  87 N9        30.14R
N.O. DOWNTOWN* CLOUDY    59  48  67 CALM      30.14R
SLIDELL        CLOUDY    52  49  89 N5        30.15R
BATON ROUGE    CLOUDY    51  45  79 CALM      30.15R
BOOTHVILLE     CLEAR     58  53  84 CALM      30.10S
BELLE CHASSE   CLOUDY    57  52  83 N5        30.12R
BOGALUSA*        N/A     49  46  88 NE3       30.18R
GALLIANO*      CLOUDY    63  53  69 E5        30.11R
NEW ROADS*     CLOUDY    50  47  89 CALM      30.16R
GONZALES*      CLOUDY    52  49  89 N3        30.14R
HAMMOND*       CLOUDY    50  46  87 CALM      30.17R
HOUMA*           N/A     56  51  81 N8        30.11S
PORT FOURCHON* CLOUDY    64  54  68 SE9       30.12R

$$

MSZ070-080>082-171200-
SOUTHERN MISSISSIPPI

CITY           SKY/WX    TMP DP  RH WIND       PRES   REMARKS
MCCOMB         CLOUDY    48  44  86 NE3       30.17R
GULFPORT       CLOUDY    56  47  71 NE8       30.14R
BILOXI         PTCLDY    52  48  88 E9        30.14S
PASCAGOULA     CLOUDY    51  49  92 NE5       30.15S

$$

COASTAL OBSERVATIONS
LAKE AND NEARSHORE STATIONS

STATION/POSITION TIME  TEMP    WIND        PRES    WAVE
                       AIR SEA DIR/SP/G            HT/PER
                 (UTC) (F)     (DEG/KT/KT) (MB)    (FT/S)
PASCAGOULA       1100   54      50/  8/ 11 1020.1
WAVELAND YACHT   1100   54 64   60/ 11/ 15 1019.6
GRAND ISLE       1100   64 66  110/  8/ 13 1019.6
SOUTHWEST PASS   1100   64 58  110/ 18/ 19 1018.7
NEW CANAL        1100   59 62   30/  7/  7 1020.7
SHELL BEACH      1100   62 61   30/  2/  3 1019.8

OFFSHORE STATIONS

STATION/POSITION TIME  TEMP    WIND        PRES    WAVE
                       AIR SEA DIR/SP/G            HT/PER
                 (UTC) (F)     (DEG/KT/KT) (MB)    (FT/S)
64 S DAUPHIN ISL 1044   67 69   90/ 17/ 19 1019.5

$$




USA.gov is the U.S. government's official web portal to all federal, state and local government web resources and services.